[[{"header":{"parameterUnit":"m.s-1","parameterCategory":1,"la1":30.2991,"la2":30.254,"lo1":-89.0895,"lo2":-89.0444,"dy":0.0017,"dx":0.0017,"nx":28,"ny":28,"refTime":"2023-10-31T09:00:00:Z","depth":0,"parameterNumber":2,"parameterNumberName":"U-component_of_WINDS"},"data":[0,0,0,0,0,0,0,0,0,0,0,0,0,0,0,0,0,0,0,0,0,0,0,0,0,0,0,0,0,0,0,0,0,0,0,0,0,0,0,0,0,0,0,0,0,0,0,0,0,0,0,0,0,0,0,0,0,0,-1.5413,-1.5414,0,-1.5517,-1.5518,-1.5519,-1.5475,-1.5472,-1.547,-1.5467,-1.5575,-1.558,-1.5586,0,0,0,0,0,0,0,0,0,0,0,0,0,-1.5177,-1.5181,-1.5413,-1.5414,-1.5416,-1.5517,-1.5518,-1.552,-1.5475,-1.5472,-1.5469,-1.5466,-1.5574,-1.558,-1.5586,0,0,0,0,0,0,0,0,0,0,0,0,0,-1.528,-1.5183,-1.5413,-1.5406,-1.5406,-1.5517,-1.5518,-1.552,-1.5476,-1.5472,-1.5468,-1.5465,-1.5572,-1.5579,-1.5587,-1.5711,0,0,-1.5611,-1.5614,0,0,0,0,0,0,0,0,-1.5274,-1.5289,-1.5405,-1.5406,-1.5407,-1.5479,-1.5474,-1.5584,-1.5477,-1.5449,-1.5467,-1.5463,-1.5547,-1.5556,-1.5584,-1.5716,-1.5721,-1.5612,-1.5616,-1.562,-1.5622,0,0,0,0,0,0,0,-1.5267,-1.5284,-1.5454,-1.5407,-1.5408,-1.5397,-1.5408,-1.5495,-1.5518,-1.5452,-1.5449,-1.5461,-1.5546,-1.5577,-1.5586,-1.5722,-1.5611,-1.5618,-1.5623,-1.5626,-1.5961,-1.5965,0,0,0,0,0,0,-1.526,-1.5278,-1.5451,-1.5457,-1.533,-1.5405,-1.5416,-1.546,-1.5517,-1.5522,-1.5464,-1.5459,-1.5565,-1.5577,-1.559,-1.574,-1.562,-1.5627,-1.5632,-1.5957,-1.5962,-1.5967,0,0,0,0,0,0,-1.5255,-1.5275,-1.5447,-1.5367,-1.5388,-1.5413,-1.5462,-1.5464,-1.5494,-1.5527,-1.5531,-1.5491,-1.5563,-1.5579,-1.5681,-1.5743,-1.5631,-1.5638,-1.5952,-1.5959,-1.5964,-1.604,0,0,0,0,0,0,-1.5248,-1.5274,-1.5322,-1.5368,-1.5392,-1.5537,-1.5466,-1.5469,-1.5508,-1.5501,-1.5553,-1.5558,-1.5561,-1.567,-1.5689,-1.5752,-1.5644,-1.5947,-1.5955,-1.5962,-1.6032,-1.6048,-1.6062,0,0,0,0,0,-1.524,-1.5339,-1.5324,-1.5345,-1.5452,-1.554,-1.5554,-1.5555,-1.5513,-1.5561,-1.5581,-1.5556,-1.5732,-1.5681,-1.5702,-1.5768,-1.5943,-1.5953,-1.5962,-1.6026,-1.6045,-1.6061,0,0,0,0,0,0,-1.53,-1.5345,-1.5329,-1.5447,-1.549,-1.5533,-1.5594,-1.5576,-1.5632,-1.5624,-1.5623,-1.5635,-1.5741,-1.5764,-1.5706,-1.589,-1.5831,-1.5845,-1.5872,-1.5891,-1.5905,-1.5899,-1.565,0,0,0,0,0,-1.5327,-1.5394,-1.543,-1.553,-1.5552,-1.5569,-1.5608,-1.5604,-1.5649,-1.5668,-1.5696,-1.5741,-1.5806,-1.5849,-1.5911,-1.6034,-1.6045,-1.6089,-1.6104,-1.6116,-1.6129,-1.6196,-1.6217,-1.5998,-1.5998,-1.5997,0,0,-1.5384,-1.5416,-1.5459,-1.5543,-1.5576,-1.5646,-1.5585,-1.5662,-1.5714,-1.5679,-1.5778,-1.58,-1.585,-1.5963,-1.6014,-1.5986,-1.6192,-1.6128,-1.6137,-1.6144,-1.6208,-1.6229,-1.6247,-1.6004,-1.6003,-1.6002,0,0,-1.5523,-1.5554,-1.5641,-1.5675,-1.5725,-1.5735,-1.5756,-1.5801,-1.5814,-1.5913,-1.5888,-1.5949,-1.6062,-1.6099,-1.6132,-1.6282,-1.6262,-1.6302,-1.6381,-1.6446,-1.6463,-1.6479,-1.6534,-1.6553,-1.6315,-1.6315,-1.6315,0,-1.5587,-1.5692,-1.5688,-1.5767,-1.5805,-1.5774,-1.5863,-1.5896,-1.5964,-1.5991,-1.5957,-1.6097,-1.6128,-1.625,-1.6287,-1.6314,-1.6338,-1.6298,-1.6461,-1.6476,-1.6491,-1.6543,-1.6564,-1.632,-1.6319,-1.6319,-1.6318,0,-1.5769,-1.5841,-1.5905,-1.5972,-1.6016,-1.6099,-1.6108,-1.6154,-1.6145,-1.6159,-1.6259,-1.6295,-1.6364,-1.6392,-1.6385,-1.6512,-1.6493,-1.646,-1.6401,-1.6516,-1.6566,-1.6586,-1.6326,-1.6325,-1.6323,-1.6322,0,0,-1.5953,-1.6014,-1.6038,-1.6067,-1.6119,-1.6175,-1.6256,-1.6323,-1.6362,-1.6409,-1.6478,-1.6572,-1.6542,-1.6579,-1.6576,-1.6633,-1.6751,-1.6593,-1.6594,-1.6623,-1.6894,-1.6921,-1.6944,-1.6736,-1.6739,-1.6742,-1.6891,0,-1.6097,-1.624,-1.6238,-1.637,-1.6437,-1.6408,-1.6479,-1.6519,-1.6533,-1.6592,-1.6607,-1.6675,-1.6628,-1.6651,-1.6706,-1.6725,-1.6806,-1.6714,-1.6801,-1.6804,-1.6792,-1.697,-1.6998,-1.7136,-1.691,-1.6913,-1.6915,0,-1.6286,-1.6339,-1.6478,-1.6519,-1.6548,-1.6611,-1.6671,-1.6728,-1.6771,-1.6777,-1.6819,-1.6806,-1.6888,-1.6824,-1.6937,-1.6875,-1.691,-1.6924,-1.6929,-1.694,-1.6869,-1.6987,-1.718,-1.7202,-1.6945,-1.6943,-1.6941,0,-1.6409,-1.6514,-1.6611,-1.6637,-1.6687,-1.6732,-1.6756,-1.6795,-1.6835,-1.6887,-1.6913,-1.6974,-1.7008,-1.7055,-1.7059,-1.7011,-1.7174,-1.711,-1.7182,-1.7182,-1.722,-1.7219,-1.7425,-1.7239,-1.7238,-1.7238,-1.7237,0,-1.6572,-1.6659,-1.6667,-1.6727,-1.6822,-1.6818,-1.6913,-1.6932,-1.6967,-1.703,-1.7007,-1.7067,-1.7067,-1.7127,-1.713,-1.7225,-1.724,-1.7247,-1.7248,-1.7251,-1.7251,-1.7276,-1.7268,-1.7243,-1.7242,-1.7241,-1.724,0,-1.6727,-1.6735,-1.6839,-1.6877,-1.6889,-1.6958,-1.6991,-1.7048,-1.7058,-1.7138,-1.7156,-1.7174,-1.7243,-1.7251,-1.7332,-1.7334,-1.7448,-1.7437,-1.7434,-1.7433,-1.7506,-1.75,-1.7738,-1.7769,-1.756,-1.7562,-1.7564,0,-1.6833,-1.6898,-1.6943,-1.6983,-1.7009,-1.7074,-1.7114,-1.7111,-1.7154,-1.7207,-1.7258,-1.7325,-1.7379,-1.7492,-1.7512,-1.7574,-1.7565,-1.7644,-1.7575,-1.7576,-1.7569,-1.7566,-1.7573,-1.7659,-1.7661,-1.7663,-1.7665,0,-1.7019,-1.7019,-1.7078,-1.7138,-1.7185,-1.7232,-1.7276,-1.731,-1.7313,-1.7362,-1.7433,-1.7474,-1.7557,-1.7624,-1.7684,-1.7708,-1.7688,-1.7686,-1.7706,-1.7712,-1.7708,-1.7713,-1.7473,-1.7681,-1.768,-1.7678,-1.7677,-1.7677,-1.7154,-1.7211,-1.7251,-1.7317,-1.7349,-1.739,-1.7445,-1.7462,-1.7521,-1.7588,-1.7582,-1.7661,-1.7701,-1.778,-1.7807,-1.7869,-1.7842,-1.7872,-1.7879,-1.7887,-1.7896,-1.7696,-1.7879,-1.7879,-1.7878,-1.7878,-1.7878,0,-1.7341,-1.7365,-1.7425,-1.7487,-1.7538,-1.7512,-1.7558,-1.7603,-1.7673,-1.7712,-1.7765,-1.7846,-1.791,-1.7934,-1.7997,-1.8042,-1.8034,-1.8059,-1.8057,-1.8063,-1.7915,-1.7892,-1.8064,-1.8064,-1.8064,-1.8064,-1.8064,-1.8064,-1.7445,-1.754,-1.7545,-1.7656,-1.7679,-1.7755,-1.7784,-1.7822,-1.7853,-1.7945,-1.7998,-1.8012,-1.8045,-1.811,-1.8168,-1.8173,-1.8198,-1.8228,-1.8229,-1.8092,-1.8073,-1.8055,-1.8034,-1.8233,-1.8233,-1.8372,-1.8374,-1.8375]},{"header":{"parameterUnit":"m.s-1","parameterCategory":1,"la1":30.2991,"la2":30.254,"lo1":-89.0895,"lo2":-89.0444,"dy":0.0017,"dx":0.0017,"nx":28,"ny":28,"refTime":"2023-10-31T09:00:00:Z","depth":0,"parameterNumber":3,"parameterNumberName":"V-component_of_WINDS"},"data":[0,0,0,0,0,0,0,0,0,0,0,0,0,0,0,0,0,0,0,0,0,0,0,0,0,0,0,0,0,0,0,0,0,0,0,0,0,0,0,0,0,0,0,0,0,0,0,0,0,0,0,0,0,0,0,0,0,0,-8.8684,-8.8686,0,-8.8897,-8.8899,-8.8902,-8.8794,-8.8788,-8.8783,-8.8778,-8.8988,-8.8999,-8.901,0,0,0,0,0,0,0,0,0,0,0,0,0,-8.8176,-8.8186,-8.8684,-8.8686,-8.8689,-8.8897,-8.8899,-8.8902,-8.8795,-8.8788,-8.8781,-8.8775,-8.8985,-8.8998,-8.9011,0,0,0,0,0,0,0,0,0,0,0,0,0,-8.8393,-8.8189,-8.8683,-8.8661,-8.8661,-8.8896,-8.89,-8.8903,-8.8796,-8.8788,-8.878,-8.8772,-8.8981,-8.8996,-8.9012,-8.928,0,0,-8.9062,-8.9069,0,0,0,0,0,0,0,0,-8.8381,-8.8412,-8.8661,-8.8663,-8.8663,-8.881,-8.8797,-8.9029,-8.8798,-8.8745,-8.8777,-8.8768,-8.8935,-8.8955,-8.9013,-8.929,-8.9299,-8.9063,-8.9073,-8.908,-8.9085,0,0,0,0,0,0,0,-8.8366,-8.8402,-8.8768,-8.8665,-8.8666,-8.8637,-8.8659,-8.8841,-8.8884,-8.8749,-8.8741,-8.8769,-8.8934,-8.8998,-8.9017,-8.9302,-8.9063,-8.9077,-8.9087,-8.9094,-8.9807,-8.9816,0,0,0,0,0,0,-8.8353,-8.839,-8.8761,-8.8774,-8.8499,-8.8653,-8.8677,-8.8771,-8.8882,-8.8891,-8.8775,-8.8763,-8.8974,-8.8998,-8.9024,-8.9344,-8.908,-8.9095,-8.9105,-8.9798,-8.9809,-8.9819,0,0,0,0,0,0,-8.8343,-8.8387,-8.8752,-8.8581,-8.8625,-8.8671,-8.8777,-8.878,-8.8843,-8.8902,-8.8908,-8.8833,-8.8968,-8.9001,-8.9217,-8.935,-8.9102,-8.9117,-8.9787,-8.9801,-8.9814,-8.9987,0,0,0,0,0,0,-8.8329,-8.8384,-8.8488,-8.8584,-8.8634,-8.8945,-8.8786,-8.879,-8.8873,-8.8858,-8.8958,-8.8966,-8.8964,-8.9194,-8.9233,-8.9368,-8.913,-8.9775,-8.9793,-8.9809,-8.997,-9.0005,-9.0036,0,0,0,0,0,-8.8311,-8.8527,-8.8494,-8.854,-8.8766,-8.8953,-8.8982,-8.8978,-8.8884,-8.8988,-8.9025,-8.8963,-8.9329,-8.9217,-8.926,-8.9402,-8.9767,-8.9788,-8.9808,-8.9955,-8.9998,-9.0035,0,0,0,0,0,0,-8.8444,-8.8539,-8.8504,-8.8758,-8.8849,-8.8935,-8.9066,-8.9023,-8.9141,-8.9122,-8.9109,-8.9132,-8.9357,-8.94,-8.9274,-8.9666,-8.9533,-8.9563,-8.963,-8.9671,-8.9703,-8.9688,-8.9143,0,0,0,0,0,-8.8504,-8.865,-8.8724,-8.8941,-8.8989,-8.902,-8.9101,-8.909,-8.9182,-8.9219,-8.9272,-8.9362,-8.9497,-8.9586,-8.9713,-8.9975,-8.9994,-9.0093,-9.0126,-9.0153,-9.018,-9.032,-9.0365,-8.9887,-8.9887,-8.9886,0,0,-8.8627,-8.8697,-8.879,-8.897,-8.9039,-8.9188,-8.9053,-8.9217,-8.9327,-8.9243,-8.9451,-8.9493,-8.9592,-8.9832,-8.994,-8.9875,-9.0316,-9.0179,-9.02,-9.0213,-9.0346,-9.0391,-9.0432,-8.9901,-8.9898,-8.9896,0,0,-8.8929,-8.8997,-8.9186,-8.9258,-8.9364,-8.9383,-8.9428,-8.9521,-8.9547,-8.9756,-8.9696,-8.9825,-9.0058,-9.0131,-9.0198,-9.0527,-9.0474,-9.0568,-9.074,-9.0877,-9.0915,-9.0948,-9.1065,-9.1107,-9.0594,-9.0595,-9.0595,0,-8.9068,-8.9294,-8.9287,-8.9457,-8.9537,-8.9469,-8.9659,-8.9728,-8.987,-8.9925,-8.9851,-9.0142,-9.0204,-9.046,-9.054,-9.0597,-9.0646,-9.0557,-9.0911,-9.0944,-9.0975,-9.1086,-9.113,-9.0605,-9.0604,-9.0603,-9.0602,0,-8.946,-8.9618,-8.9756,-8.9898,-8.9993,-9.0172,-9.0189,-9.0286,-9.0266,-9.0292,-9.0504,-9.0576,-9.0717,-9.0776,-9.0757,-9.1029,-9.0986,-9.0912,-9.0778,-9.1031,-9.1136,-9.1178,-9.0621,-9.0617,-9.0614,-9.0611,0,0,-8.9854,-8.9989,-9.004,-9.0103,-9.0215,-9.0335,-9.0509,-9.0649,-9.0732,-9.0831,-9.0976,-9.1174,-9.1106,-9.1183,-9.1171,-9.1292,-9.1547,-9.1202,-9.1204,-9.1264,-9.185,-9.1906,-9.1956,-9.1512,-9.152,-9.1526,-9.1842,0,-9.0164,-9.0472,-9.047,-9.0754,-9.0898,-9.0835,-9.0986,-9.107,-9.1099,-9.1223,-9.1252,-9.1394,-9.1293,-9.1339,-9.1455,-9.1491,-9.1664,-9.1468,-9.1644,-9.1651,-9.1623,-9.201,-9.207,-9.2365,-9.1882,-9.1889,-9.1894,0,-9.0567,-9.0683,-9.0982,-9.1072,-9.1133,-9.1269,-9.1397,-9.1517,-9.1609,-9.1621,-9.1707,-9.1677,-9.185,-9.1711,-9.195,-9.1817,-9.1888,-9.1916,-9.1927,-9.1944,-9.1789,-9.2038,-9.2458,-9.2503,-9.1958,-9.1953,-9.1949,0,-9.0825,-9.1054,-9.1263,-9.1318,-9.1429,-9.1527,-9.1577,-9.1661,-9.1745,-9.1855,-9.1909,-9.2037,-9.2107,-9.2206,-9.2209,-9.2108,-9.245,-9.2311,-9.2464,-9.2464,-9.254,-9.2535,-9.2978,-9.2585,-9.2584,-9.2583,-9.2582,0,-9.1172,-9.1357,-9.138,-9.1509,-9.1714,-9.1708,-9.191,-9.195,-9.2026,-9.2159,-9.2111,-9.2236,-9.2233,-9.236,-9.2363,-9.256,-9.2592,-9.2605,-9.2604,-9.261,-9.2609,-9.2657,-9.2637,-9.2595,-9.2592,-9.259,-9.2588,0,-9.1495,-9.1518,-9.1741,-9.1828,-9.1854,-9.2001,-9.2074,-9.2195,-9.2218,-9.2387,-9.2426,-9.2463,-9.2609,-9.2623,-9.2792,-9.2794,-9.3032,-9.3008,-9.3002,-9.2998,-9.315,-9.3136,-9.3641,-9.3707,-9.327,-9.3274,-9.3277,0,-9.1715,-9.1857,-9.1959,-9.2047,-9.2103,-9.2243,-9.2329,-9.2327,-9.2418,-9.2534,-9.264,-9.2783,-9.2897,-9.3133,-9.3173,-9.3302,-9.3281,-9.3449,-9.33,-9.3302,-9.3284,-9.3276,-9.329,-9.3478,-9.3483,-9.3487,-9.349,0,-9.2105,-9.2109,-9.2236,-9.2368,-9.2472,-9.2575,-9.2671,-9.2744,-9.2753,-9.2857,-9.3008,-9.3097,-9.327,-9.3412,-9.3538,-9.3585,-9.354,-9.3536,-9.3579,-9.3587,-9.3578,-9.3585,-9.3082,-9.3525,-9.3522,-9.3519,-9.3517,-9.3516,-9.2383,-9.2506,-9.2598,-9.2741,-9.2813,-9.2904,-9.3022,-9.306,-9.3187,-9.333,-9.332,-9.3487,-9.3573,-9.3738,-9.3796,-9.3924,-9.3867,-9.3928,-9.3944,-9.3959,-9.3975,-9.3557,-9.3946,-9.3945,-9.3944,-9.3944,-9.3943,0,-9.277,-9.2826,-9.2958,-9.3095,-9.3207,-9.3155,-9.3258,-9.3354,-9.3503,-9.3588,-9.3702,-9.3874,-9.4011,-9.4061,-9.4194,-9.4286,-9.4269,-9.4321,-9.4315,-9.4327,-9.4018,-9.3969,-9.4334,-9.4334,-9.4334,-9.4333,-9.4333,-9.4333,-9.2985,-9.3191,-9.3206,-9.3445,-9.3498,-9.3663,-9.3726,-9.3809,-9.3877,-9.4073,-9.4187,-9.422,-9.4291,-9.4428,-9.455,-9.4561,-9.4612,-9.4674,-9.4677,-9.4388,-9.4348,-9.4311,-9.4264,-9.4685,-9.4686,-9.4974,-9.4977,-9.4979]}]]